This is the latest recevied weather packets stored in our database for station/object DH0DM-13. If no packets are shown the sender has not sent any weather packets the latest 1 day(s).
| Time | Temp. | Humidity | Pressure | Rain* | Wind** | Luminosity | Snow |
|---|---|---|---|---|---|---|---|
| 1777972996 | 18.89° C | 71% | 982.8 hPa | 0.25 mm | 1.34 m/s, 3° | - | - |
| 1777972395 | 18.89° C | 72% | 982.8 hPa | 0.25 mm | 2.68 m/s, 330° | - | - |
| 1777971795 | 18.89° C | 71% | 983 hPa | 0.25 mm | 0.89 m/s, 334° | - | - |
| 1777971194 | 19.44° C | 70% | 982.8 hPa | 0.25 mm | 1.34 m/s, 348° | - | - |
| 1777970593 | 18.89° C | 67% | 982.9 hPa | 0.25 mm | 2.68 m/s, 326° | - | - |
| 1777969992 | 17.78° C | 74% | 982.8 hPa | 0.25 mm | 3.58 m/s, 220° | - | - |
| 1777969391 | 17.78° C | 74% | 983.1 hPa | 0.25 mm | 1.34 m/s, 86° | - | - |
| 1777968790 | 17.22° C | 76% | 983.1 hPa | 0.25 mm | 0.45 m/s, 200° | - | - |
| 1777968189 | 17.22° C | 81% | 983.1 hPa | 0.25 mm | 1.79 m/s, 192° | - | - |
| 1777967588 | 16.67° C | 82% | 983 hPa | 0.25 mm | 1.34 m/s, 168° | - | - |
| 1777966987 | 15.56° C | 84% | 983.3 hPa | 0.25 mm | 2.24 m/s, 199° | - | - |
| 1777966387 | 15° C | 86% | 983.2 hPa | 0.25 mm | 0.89 m/s, 179° | - | - |
| 1777965786 | 15° C | 90% | 983 hPa | 0.25 mm | 0.45 m/s, 170° | - | - |
| 1777965184 | 14.44° C | 91% | 983.3 hPa | 0.25 mm | 0 m/s | - | - |
| 1777964583 | 13.89° C | 92% | 983.3 hPa | 0.25 mm | 0 m/s | - | - |
| 1777963982 | 13.89° C | 91% | 983.4 hPa | 0.25 mm | 1.34 m/s, 156° | - | - |
| 1777963381 | 13.89° C | 90% | 983.6 hPa | 0 mm | 0 m/s | - | - |
| 1777962781 | 13.89° C | 90% | 983.5 hPa | 0 mm | 0.45 m/s, 172° | - | - |
| 1777962180 | 14.44° C | 90% | 983.7 hPa | 0 mm | 0 m/s | - | - |
| 1777961579 | 14.44° C | 89% | 983.6 hPa | 0 mm | 0.89 m/s, 176° | - | - |
| 1777960978 | 14.44° C | 89% | 983.5 hPa | 0 mm | 0.89 m/s, 171° | - | - |
| 1777960377 | 13.89° C | 89% | 983.5 hPa | 0 mm | 1.79 m/s, 164° | - | - |
| 1777959776 | 13.33° C | 90% | 983.5 hPa | 0 mm | 0 m/s | - | - |
| 1777959175 | 13.33° C | 89% | 983.2 hPa | 0 mm | 0 m/s | - | - |
| 1777958574 | 13.89° C | 88% | 983 hPa | 0 mm | 0 m/s | - | - |
* Rain since midnight (hover to see other rain measurements)
** Current wind speed in m/s (hover to see current wind gust speed)